Skip Page Navigation
NASA JPL Caltech
NASA Logo - Jet Propulsion Laboratory + View the NASA Portal
+ Near-Earth Object (NEO) Program
Search JPL
JPL Home Earth Solar System Stars & Galaxies Technology
JPL Solar System Dynamics
BODIES ORBITS EPHEMERIDES TOOLS PHYSICAL DATA DISCOVERY FAQ SITE MAP
JPL Small-Body Database Browser
Search: [ help ]  
5738 Billpickering (1989 UY3)
Classification: Mars-crossing Asteroid          SPK-ID: 2005738
Ephemeris | Orbit Diagram | Orbital Elements | Physical Parameters | Discovery Circumstances | Close-Approach Data ]

[ hide orbit diagram ]
Orbit Diagram
Note: Make sure you have Java enabled on your browser to see the applet. This applet is provided as a 3D orbit visualization tool. The applet was implemented using 2-body methods, and hence should not be used for determining accurate long-term trajectories (over several years or decades) or planetary encounter circumstances. For accurate long-term ephemerides, please instead use our Horizons system.
Orbit Viewer

Additional Notes: the orbits shown in the applet are color coded. The planets are white lines, and the asteroid/comet is a blue line. The bright white line indicates the portion of the orbit that is above the ecliptic plane, and the darker portion is below the ecliptic plane. Likewise for the asteroid/comet orbit, the light blue indicates the portion above the ecliptic plane, and the dark blue the portion below the ecliptic plane.

Orbit Viewer applet originally written and kindly provided by Osamu Ajiki (AstroArts), and further modified by Ron Baalke (JPL).


Orbital Elements at Epoch 2456400.5 (2013-Apr-18.0) TDB
Reference: JPL 1 (heliocentric ecliptic J2000)
 Element Value Uncertainty (1-sigma)   Units 
e .4779012848516889 7.3102e-08  
a 2.737503942339537 2.4795e-08 AU
q 1.429247291008909 1.9867e-07 AU
i 21.77957956800346 3.1066e-05 deg
node 239.4217151461773 4.2131e-05 deg
peri 246.2551685118397 6.866e-05 deg
M 34.07110484968823 3.7866e-05 deg
tp 2456243.927937313444
(2012-Nov-12.42793731)
0.0001731 JED
period 1654.362041261369
4.53
2.2477e-05
6.154e-08
d
yr
n .2176065401775768 2.9565e-09 deg/d
Q 4.045760593670165 3.6645e-08 AU
  Orbit Determination Parameters
   # obs. used (total)      271  
   data-arc span      11832 days (32.39 yr)  
   first obs. used      1980-11-29  
   last obs. used      2013-04-22  
   planetary ephem.      DE405  
   SB-pert. ephem.      SB405-CPV-2  
   condition code      0  
   fit RMS      .59728  
   data source      ORB  
   producer      Otto Matic  
   solution date      2013-Apr-29 13:18:18  

Additional Information
 Earth MOID = .572919 AU 
 T_jup = 3.084 
[ show covariance matrix ]

Ephemeris | Orbit Diagram | Orbital Elements | Physical Parameters | Discovery Circumstances | Close-Approach Data ]

Physical Parameter Table
Parameter Symbol Value Units Sigma Reference Notes
absolute magnitude H 14.1 mag n/a PDS3 (MPC 22677)  
rotation period rot_per 10.4 h n/a Asteroid Lightcurve DataBase (Rev. 2013-May-01) Published Reference List:
[Erikson, A.; Mottola, S.; Lagerros, J.S.V.; Lindgren, M.; et al. (2000) Icarus 147, 487-497.]

5738 Billpickering (1989 UY3)          Discovered 1989-Oct-27 by Helin, E. F. at Palomar (675)
Reference: DISCOVERY.DBLast Updated: 2003-08-29

[ show close-approach data ]
Alternate Designations
 1989 UY3 = 1980 WV4 
Ephemeris | Orbit Diagram | Orbital Elements | Physical Parameters | Discovery Circumstances | Close-Approach Data ]
ABOUT SSD CREDITS/AWARDS PRIVACY/COPYRIGHT GLOSSARY LINKS
FirstGov 2013-May-18 19:52 UT
(server date/time)  
NASA Home Page
Site Manager:   Donald K. Yeomans
Webmaster  Alan B. Chamberlin